#Datum;Uhrzeit;WR;Pac;DaySum;Status;WR;Pac;DaySum;Status;Pdc1;Udc;Temp;WR;Pac;DaySum;Status;Pdc1;Udc;Temp;WR;Pac;DaySum;Status;Pdc1;Udc;Temp;WR;Pac;DaySum;Status;Pdc1;Pdc2;Udc1;Udc2;Temp;WR;Pac;DaySum;Status;Pdc1;Pdc2;Udc1;Udc2;Temp;WR;Pac;DaySum;Status;Pdc1;Udc;Temp;WR;Pac;DaySum;Status;Pdc1;Udc;Temp;WR;Pac;DaySum;Status;Pdc1;Udc;Temp
12.12.20;23:55:00;1;404;20194;0;2;0;2822;0;0;0;0;3;0;1725;0;0;0;0;4;0;2392;0;0;0;0;5;0;0;0;0;0;0;0;0;6;0;3781;0;0;0;0;0;0;7;0;3052;0;0;0;0;8;0;3099;0;0;0;0;9;0;1645;0;0;0;0
12.12.20;23:50:00;1;403;20160;0;2;0;2822;0;0;0;0;3;0;1725;0;0;0;0;4;0;2392;0;0;0;0;5;0;0;0;0;0;0;0;0;6;0;3781;0;0;0;0;0;0;7;0;3052;0;0;0;0;8;0;3099;0;0;0;0;9;0;1645;0;0;0;0
12.12.20;23:45:00;1;404;20127;0;2;0;2822;0;0;0;0;3;0;1725;0;0;0;0;4;0;2392;0;0;0;0;5;0;0;0;0;0;0;0;0;6;0;3781;0;0;0;0;0;0;7;0;3052;0;0;0;0;8;0;3099;0;0;0;0;9;0;1645;0;0;0;0
12.12.20;23:40:00;1;458;20093;0;2;0;2822;0;0;0;0;3;0;1725;0;0;0;0;4;0;2392;0;0;0;0;5;0;0;0;0;0;0;0;0;6;0;3781;0;0;0;0;0;0;7;0;3052;0;0;0;0;8;0;3099;0;0;0;0;9;0;1645;0;0;0;0
12.12.20;23:35:00;1;436;20055;0;2;0;2822;0;0;0;0;3;0;1725;0;0;0;0;4;0;2392;0;0;0;0;5;0;0;0;0;0;0;0;0;6;0;3781;0;0;0;0;0;0;7;0;3052;0;0;0;0;8;0;3099;0;0;0;0;9;0;1645;0;0;0;0
12.12.20;23:30:00;1;416;20018;0;2;0;2822;0;0;0;0;3;0;1725;0;0;0;0;4;0;2392;0;0;0;0;5;0;0;0;0;0;0;0;0;6;0;3781;0;0;0;0;0;0;7;0;3052;0;0;0;0;8;0;3099;0;0;0;0;9;0;1645;0;0;0;0
12.12.20;23:25:00;1;481;19984;0;2;0;2822;0;0;0;0;3;0;1725;0;0;0;0;4;0;2392;0;0;0;0;5;0;0;0;0;0;0;0;0;6;0;3781;0;0;0;0;0;0;7;0;3052;0;0;0;0;8;0;3099;0;0;0;0;9;0;1645;0;0;0;0
12.12.20;23:20:00;1;494;19944;0;2;0;2822;0;0;0;0;3;0;1725;0;0;0;0;4;0;2392;0;0;0;0;5;0;0;0;0;0;0;0;0;6;0;3781;0;0;0;0;0;0;7;0;3052;0;0;0;0;8;0;3099;0;0;0;0;9;0;1645;0;0;0;0
12.12.20;23:15:00;1;555;19902;0;2;0;2822;0;0;0;0;3;0;1725;0;0;0;0;4;0;2392;0;0;0;0;5;0;0;0;0;0;0;0;0;6;0;3781;0;0;0;0;0;0;7;0;3052;0;0;0;0;8;0;3099;0;0;0;0;9;0;1645;0;0;0;0
12.12.20;23:10:00;1;571;19856;0;2;0;2822;0;0;0;0;3;0;1725;0;0;0;0;4;0;2392;0;0;0;0;5;0;0;0;0;0;0;0;0;6;0;3781;0;0;0;0;0;0;7;0;3052;0;0;0;0;8;0;3099;0;0;0;0;9;0;1645;0;0;0;0
12.12.20;23:05:00;1;540;19808;0;2;0;2822;0;0;0;0;3;0;1725;0;0;0;0;4;0;2392;0;0;0;0;5;0;0;0;0;0;0;0;0;6;0;3781;0;0;0;0;0;0;7;0;3052;0;0;0;0;8;0;3099;0;0;0;0;9;0;1645;0;0;0;0
12.12.20;23:00:00;1;496;19763;0;2;0;2822;0;0;0;0;3;0;1725;0;0;0;0;4;0;2392;0;0;0;0;5;0;0;0;0;0;0;0;0;6;0;3781;0;0;0;0;0;0;7;0;3052;0;0;0;0;8;0;3099;0;0;0;0;9;0;1645;0;0;0;0
12.12.20;22:55:00;1;507;19722;0;2;0;2822;0;0;0;0;3;0;1725;0;0;0;0;4;0;2392;0;0;0;0;5;0;0;0;0;0;0;0;0;6;0;3781;2;0;0;0;0;0;7;0;3052;0;0;0;0;8;0;3099;0;0;0;0;9;0;1645;0;0;0;0
12.12.20;22:50:00;1;466;19680;0;2;0;2822;0;0;0;0;3;0;1725;0;0;0;0;4;0;2392;0;0;0;0;5;0;0;0;0;0;0;0;0;6;0;3781;2;0;0;0;0;0;7;0;3052;0;0;0;0;8;0;3099;0;0;0;0;9;0;1645;0;0;0;0
12.12.20;22:45:00;1;429;19642;0;2;0;2822;0;0;0;0;3;0;1725;0;0;0;0;4;0;2392;0;0;0;0;5;0;0;0;0;0;0;0;0;6;0;3781;2;0;0;0;0;0;7;0;3052;0;0;0;0;8;0;3099;0;0;0;0;9;0;1645;0;0;0;0
12.12.20;22:40:00;1;430;19608;0;2;0;2822;0;0;0;0;3;0;1725;0;0;0;0;4;0;2392;0;0;0;0;5;0;0;0;0;0;0;0;0;6;0;3781;2;0;0;0;0;0;7;0;3052;0;0;0;0;8;0;3099;0;0;0;0;9;0;1645;0;0;0;0
12.12.20;22:35:00;1;451;19572;0;2;0;2822;0;0;0;0;3;0;1725;0;0;0;0;4;0;2392;0;0;0;0;5;0;0;0;0;0;0;0;0;6;0;3781;2;0;0;0;0;0;7;0;3052;0;0;0;0;8;0;3099;0;0;0;0;9;0;1645;0;0;0;0
12.12.20;22:30:00;1;460;19534;0;2;0;2822;0;0;0;0;3;0;1725;0;0;0;0;4;0;2392;0;0;0;0;5;0;0;0;0;0;0;0;0;6;0;3781;2;0;0;0;0;0;7;0;3052;0;0;0;0;8;0;3099;0;0;0;0;9;0;1645;0;0;0;0
12.12.20;22:25:00;1;473;19496;0;2;0;2822;0;0;0;0;3;0;1725;0;0;0;0;4;0;2392;0;0;0;0;5;0;0;0;0;0;0;0;0;6;0;3781;2;0;0;0;0;0;7;0;3052;0;0;0;0;8;0;3099;0;0;0;0;9;0;1645;0;0;0;0
12.12.20;22:20:00;1;465;19457;0;2;0;2822;0;0;0;0;3;0;1725;0;0;0;0;4;0;2392;0;0;0;0;5;0;0;0;0;0;0;0;0;6;0;3781;2;0;0;0;0;0;7;0;3052;0;0;0;0;8;0;3099;0;0;0;0;9;0;1645;0;0;0;0
12.12.20;22:15:00;1;489;19418;0;2;0;2822;0;0;0;0;3;0;1725;0;0;0;0;4;0;2392;0;0;0;0;5;0;0;0;0;0;0;0;0;6;0;3781;2;0;0;0;0;0;7;0;3052;0;0;0;0;8;0;3099;0;0;0;0;9;0;1645;0;0;0;0
12.12.20;22:10:00;1;455;19377;0;2;0;2822;0;0;0;0;3;0;1725;0;0;0;0;4;0;2392;0;0;0;0;5;0;0;0;0;0;0;0;0;6;0;3781;2;0;0;0;0;0;7;0;3052;0;0;0;0;8;0;3099;0;0;0;0;9;0;1645;0;0;0;0
12.12.20;22:05:00;1;470;19338;0;2;0;2822;0;0;0;0;3;0;1725;0;0;0;0;4;0;2392;0;0;0;0;5;0;0;0;0;0;0;0;0;6;0;3781;2;0;0;0;0;0;7;0;3052;0;0;0;0;8;0;3099;0;0;0;0;9;0;1645;0;0;0;0
12.12.20;22:00:00;1;440;19299;0;2;0;2822;0;0;0;0;3;0;1725;0;0;0;0;4;0;2392;0;0;0;0;5;0;0;0;0;0;0;0;0;6;0;3781;2;0;0;0;0;0;7;0;3052;0;0;0;0;8;0;3099;0;0;0;0;9;0;1645;0;0;0;0
12.12.20;21:55:00;1;501;19262;0;2;0;2822;0;0;0;0;3;0;1725;0;0;0;0;4;0;2392;0;0;0;0;5;0;0;0;0;0;0;0;0;6;0;3781;2;0;0;0;0;0;7;0;3052;0;0;0;0;8;0;3099;0;0;0;0;9;0;1645;0;0;0;0
12.12.20;21:50:00;1;492;19221;0;2;0;2822;0;0;0;0;3;0;1725;0;0;0;0;4;0;2392;0;0;0;0;5;0;0;0;0;0;0;0;0;6;0;3781;2;0;0;0;0;0;7;0;3052;0;0;0;0;8;0;3099;0;0;0;0;9;0;1645;0;0;0;0
12.12.20;21:45:00;1;486;19179;0;2;0;2822;0;0;0;0;3;0;1725;0;0;0;0;4;0;2392;0;0;0;0;5;0;0;0;0;0;0;0;0;6;0;3781;2;0;0;0;0;0;7;0;3052;0;0;0;0;8;0;3099;0;0;0;0;9;0;1645;0;0;0;0
12.12.20;21:40:00;1;547;19138;0;2;0;2822;0;0;0;0;3;0;1725;0;0;0;0;4;0;2392;0;0;0;0;5;0;0;0;0;0;0;0;0;6;0;3781;2;0;0;0;0;0;7;0;3052;0;0;0;0;8;0;3099;0;0;0;0;9;0;1645;0;0;0;0
12.12.20;21:35:00;1;529;19092;0;2;0;2822;0;0;0;0;3;0;1725;0;0;0;0;4;0;2392;0;0;0;0;5;0;0;0;0;0;0;0;0;6;0;3781;2;0;0;0;0;0;7;0;3052;0;0;0;0;8;0;3099;0;0;0;0;9;0;1645;0;0;0;0
12.12.20;21:30:00;1;539;19045;0;2;0;2822;0;0;0;0;3;0;1725;0;0;0;0;4;0;2392;0;0;0;0;5;0;0;0;0;0;0;0;0;6;0;3781;2;0;0;0;0;0;7;0;3052;0;0;0;0;8;0;3099;0;0;0;0;9;0;1645;0;0;0;0
12.12.20;21:25:00;1;493;19001;0;2;0;2822;0;0;0;0;3;0;1725;0;0;0;0;4;0;2392;0;0;0;0;5;0;0;0;0;0;0;0;0;6;0;3781;2;0;0;0;0;0;7;0;3052;0;0;0;0;8;0;3099;0;0;0;0;9;0;1645;0;0;0;0
12.12.20;21:20:00;1;445;18960;0;2;0;2822;0;0;0;0;3;0;1725;0;0;0;0;4;0;2392;0;0;0;0;5;0;0;0;0;0;0;0;0;6;0;3781;2;0;0;0;0;0;7;0;3052;0;0;0;0;8;0;3099;0;0;0;0;9;0;1645;0;0;0;0
12.12.20;21:15:00;1;440;18923;0;2;0;2822;0;0;0;0;3;0;1725;0;0;0;0;4;0;2392;0;0;0;0;5;0;0;0;0;0;0;0;0;6;0;3781;2;0;0;0;0;0;7;0;3052;0;0;0;0;8;0;3099;0;0;0;0;9;0;1645;0;0;0;0
12.12.20;21:10:00;1;464;18886;0;2;0;2822;0;0;0;0;3;0;1725;0;0;0;0;4;0;2392;0;0;0;0;5;0;0;0;0;0;0;0;0;6;0;3781;2;0;0;0;0;0;7;0;3052;0;0;0;0;8;0;3099;0;0;0;0;9;0;1645;0;0;0;0
12.12.20;21:05:00;1;533;18848;0;2;0;2822;0;0;0;0;3;0;1725;0;0;0;0;4;0;2392;0;0;0;0;5;0;0;0;0;0;0;0;0;6;0;3781;2;0;0;0;0;0;7;0;3052;0;0;0;0;8;0;3099;0;0;0;0;9;0;1645;0;0;0;0
12.12.20;21:00:00;1;490;18803;0;2;0;2822;0;0;0;0;3;0;1725;0;0;0;0;4;0;2392;0;0;0;0;5;0;0;0;0;0;0;0;0;6;0;3781;2;0;0;0;0;0;7;0;3052;0;0;0;0;8;0;3099;0;0;0;0;9;0;1645;0;0;0;0
12.12.20;20:55:00;1;488;18762;0;2;0;2822;0;0;0;0;3;0;1725;0;0;0;0;4;0;2392;0;0;0;0;5;0;0;0;0;0;0;0;0;6;0;3781;2;0;0;0;0;0;7;0;3052;0;0;0;0;8;0;3099;0;0;0;0;9;0;1645;0;0;0;0
12.12.20;20:50:00;1;446;18721;0;2;0;2822;0;0;0;0;3;0;1725;0;0;0;0;4;0;2392;0;0;0;0;5;0;0;0;0;0;0;0;0;6;0;3781;2;0;0;0;0;0;7;0;3052;0;0;0;0;8;0;3099;0;0;0;0;9;0;1645;0;0;0;0
12.12.20;20:45:00;1;348;18684;0;2;0;2822;0;0;0;0;3;0;1725;0;0;0;0;4;0;2392;0;0;0;0;5;0;0;0;0;0;0;0;0;6;0;3781;2;0;0;0;0;0;7;0;3052;0;0;0;0;8;0;3099;0;0;0;0;9;0;1645;0;0;0;0
12.12.20;20:40:00;1;340;18655;0;2;0;2822;0;0;0;0;3;0;1725;0;0;0;0;4;0;2392;0;0;0;0;5;0;0;0;0;0;0;0;0;6;0;3781;2;0;0;0;0;0;7;0;3052;0;0;0;0;8;0;3099;0;0;0;0;9;0;1645;0;0;0;0
12.12.20;20:35:00;1;407;18627;0;2;0;2822;0;0;0;0;3;0;1725;0;0;0;0;4;0;2392;0;0;0;0;5;0;0;0;0;0;0;0;0;6;0;3781;2;0;0;0;0;0;7;0;3052;0;0;0;0;8;0;3099;0;0;0;0;9;0;1645;0;0;0;0
12.12.20;20:30:00;1;448;18594;0;2;0;2822;0;0;0;0;3;0;1725;0;0;0;0;4;0;2392;0;0;0;0;5;0;0;0;0;0;0;0;0;6;0;3781;2;0;0;0;0;0;7;0;3052;0;0;0;0;8;0;3099;0;0;0;0;9;0;1645;0;0;0;0
12.12.20;20:25:00;1;372;18560;0;2;0;2822;0;0;0;0;3;0;1725;0;0;0;0;4;0;2392;0;0;0;0;5;0;0;0;0;0;0;0;0;6;0;3781;2;0;0;0;0;0;7;0;3052;0;0;0;0;8;0;3099;0;0;0;0;9;0;1645;0;0;0;0
12.12.20;20:20:00;1;306;18533;0;2;0;2822;0;0;0;0;3;0;1725;0;0;0;0;4;0;2392;0;0;0;0;5;0;0;0;0;0;0;0;0;6;0;3781;2;0;0;0;0;0;7;0;3052;0;0;0;0;8;0;3099;0;0;0;0;9;0;1645;0;0;0;0
12.12.20;20:15:00;1;360;18507;0;2;0;2822;0;0;0;0;3;0;1725;0;0;0;0;4;0;2392;0;0;0;0;5;0;0;0;0;0;0;0;0;6;0;3781;2;0;0;0;0;0;7;0;3052;0;0;0;0;8;0;3099;0;0;0;0;9;0;1645;0;0;0;0
12.12.20;20:10:00;1;358;18477;0;2;0;2822;0;0;0;0;3;0;1725;0;0;0;0;4;0;2392;0;0;0;0;5;0;0;0;0;0;0;0;0;6;0;3781;2;0;0;0;0;0;7;0;3052;0;0;0;0;8;0;3099;0;0;0;0;9;0;1645;0;0;0;0
12.12.20;20:05:00;1;384;18447;0;2;0;2822;0;0;0;0;3;0;1725;0;0;0;0;4;0;2392;0;0;0;0;5;0;0;0;0;0;0;0;0;6;0;3781;2;0;0;0;0;0;7;0;3052;0;0;0;0;8;0;3099;0;0;0;0;9;0;1645;0;0;0;0
12.12.20;20:00:00;1;313;18417;0;2;0;2822;0;0;0;0;3;0;1725;0;0;0;0;4;0;2392;0;0;0;0;5;0;0;0;0;0;0;0;0;6;0;3781;2;0;0;0;0;0;7;0;3052;0;0;0;0;8;0;3099;0;0;0;0;9;0;1645;0;0;0;0
12.12.20;19:55:00;1;299;18389;0;2;0;2822;0;0;0;0;3;0;1725;0;0;0;0;4;0;2392;0;0;0;0;5;0;0;0;0;0;0;0;0;6;0;3781;2;0;0;0;0;0;7;0;3052;0;0;0;0;8;0;3099;0;0;0;0;9;0;1645;0;0;0;0
12.12.20;19:50:00;1;331;18364;0;2;0;2822;0;0;0;0;3;0;1725;0;0;0;0;4;0;2392;0;0;0;0;5;0;0;0;0;0;0;0;0;6;0;3781;2;0;0;0;0;0;7;0;3052;0;0;0;0;8;0;3099;0;0;0;0;9;0;1645;0;0;0;0
12.12.20;19:45:00;1;342;18337;0;2;0;2822;0;0;0;0;3;0;1725;0;0;0;0;4;0;2392;0;0;0;0;5;0;0;0;0;0;0;0;0;6;0;3781;2;0;0;0;0;0;7;0;3052;0;0;0;0;8;0;3099;0;0;0;0;9;0;1645;0;0;0;0
12.12.20;19:40:00;1;343;18309;0;2;0;2822;0;0;0;0;3;0;1725;0;0;0;0;4;0;2392;0;0;0;0;5;0;0;0;0;0;0;0;0;6;0;3781;2;0;0;0;0;0;7;0;3052;0;0;0;0;8;0;3099;0;0;0;0;9;0;1645;0;0;0;0
12.12.20;19:35:00;1;350;18280;0;2;0;2822;0;0;0;0;3;0;1725;0;0;0;0;4;0;2392;0;0;0;0;5;0;0;0;0;0;0;0;0;6;0;3781;2;0;0;0;0;0;7;0;3052;0;0;0;0;8;0;3099;0;0;0;0;9;0;1645;0;0;0;0
12.12.20;19:30:00;1;328;18250;0;2;0;2822;0;0;0;0;3;0;1725;0;0;0;0;4;0;2392;0;0;0;0;5;0;0;0;0;0;0;0;0;6;0;3781;2;0;0;0;0;0;7;0;3052;0;0;0;0;8;0;3099;0;0;0;0;9;0;1645;0;0;0;0
12.12.20;19:25:00;1;299;18222;0;2;0;2822;0;0;0;0;3;0;1725;0;0;0;0;4;0;2392;0;0;0;0;5;0;0;0;0;0;0;0;0;6;0;3781;2;0;0;0;0;0;7;0;3052;0;0;0;0;8;0;3099;0;0;0;0;9;0;1645;0;0;0;0
12.12.20;19:20:00;1;321;18197;0;2;0;2822;0;0;0;0;3;0;1725;0;0;0;0;4;0;2392;0;0;0;0;5;0;0;0;0;0;0;0;0;6;0;3781;2;0;0;0;0;0;7;0;3052;0;0;0;0;8;0;3099;0;0;0;0;9;0;1645;0;0;0;0
12.12.20;19:15:00;1;349;18171;0;2;0;2822;0;0;0;0;3;0;1725;0;0;0;0;4;0;2392;0;0;0;0;5;0;0;0;0;0;0;0;0;6;0;3781;2;0;0;0;0;0;7;0;3052;0;0;0;0;8;0;3099;0;0;0;0;9;0;1645;0;0;0;0
12.12.20;19:10:00;1;316;18142;0;2;0;2822;0;0;0;0;3;0;1725;0;0;0;0;4;0;2392;0;0;0;0;5;0;0;0;0;0;0;0;0;6;0;3781;2;0;0;0;0;0;7;0;3052;0;0;0;0;8;0;3099;0;0;0;0;9;0;1645;0;0;0;0
12.12.20;19:05:00;1;298;18116;0;2;0;2822;0;0;0;0;3;0;1725;0;0;0;0;4;0;2392;0;0;0;0;5;0;0;0;0;0;0;0;0;6;0;3781;2;0;0;0;0;0;7;0;3052;0;0;0;0;8;0;3099;0;0;0;0;9;0;1645;0;0;0;0
12.12.20;19:00:00;1;412;18090;0;2;0;2822;0;0;0;0;3;0;1725;0;0;0;0;4;0;2392;0;0;0;0;5;0;0;0;0;0;0;0;0;6;0;3781;2;0;0;0;0;0;7;0;3052;0;0;0;0;8;0;3099;0;0;0;0;9;0;1645;0;0;0;0
12.12.20;18:55:00;1;393;18057;0;2;0;2822;0;0;0;0;3;0;1725;0;0;0;0;4;0;2392;0;0;0;0;5;0;0;0;0;0;0;0;0;6;0;3781;2;0;0;0;0;0;7;0;3052;0;0;0;0;8;0;3099;0;0;0;0;9;0;1645;0;0;0;0
12.12.20;18:50:00;1;399;18024;0;2;0;2822;0;0;0;0;3;0;1725;0;0;0;0;4;0;2392;0;0;0;0;5;0;0;0;0;0;0;0;0;6;0;3781;2;0;0;0;0;0;7;0;3052;0;0;0;0;8;0;3099;0;0;0;0;9;0;1645;0;0;0;0
12.12.20;18:45:00;1;395;17991;0;2;0;2822;0;0;0;0;3;0;1725;0;0;0;0;4;0;2392;0;0;0;0;5;0;0;0;0;0;0;0;0;6;0;3781;2;0;0;0;0;0;7;0;3052;0;0;0;0;8;0;3099;0;0;0;0;9;0;1645;0;0;0;0
12.12.20;18:40:00;1;366;17957;0;2;0;2822;0;0;0;0;3;0;1725;0;0;0;0;4;0;2392;0;0;0;0;5;0;0;0;0;0;0;0;0;6;0;3781;2;0;0;0;0;0;7;0;3052;0;0;0;0;8;0;3099;0;0;0;0;9;0;1645;0;0;0;0
12.12.20;18:35:00;1;339;17926;0;2;0;2822;0;0;0;0;3;0;1725;0;0;0;0;4;0;2392;0;0;0;0;5;0;0;0;0;0;0;0;0;6;0;3781;2;0;0;0;0;0;7;0;3052;0;0;0;0;8;0;3099;0;0;0;0;9;0;1645;0;0;0;0
12.12.20;18:30:00;1;332;17898;0;2;0;2822;0;0;0;0;3;0;1725;0;0;0;0;4;0;2392;0;0;0;0;5;0;0;0;0;0;0;0;0;6;0;3781;2;0;0;0;0;0;7;0;3052;0;0;0;0;8;0;3099;0;0;0;0;9;0;1645;0;0;0;0
12.12.20;18:25:00;1;296;17869;0;2;0;2822;0;0;0;0;3;0;1725;0;0;0;0;4;0;2392;0;0;0;0;5;0;0;0;0;0;0;0;0;6;0;3781;2;0;0;0;0;0;7;0;3052;0;0;0;0;8;0;3099;0;0;0;0;9;0;1645;0;0;0;0
12.12.20;18:20:00;1;296;17844;0;2;0;2822;0;0;0;0;3;0;1725;0;0;0;0;4;0;2392;0;0;0;0;5;0;0;0;0;0;0;0;0;6;0;3781;2;0;0;0;0;0;7;0;3052;0;0;0;0;8;0;3099;0;0;0;0;9;0;1645;0;0;0;0
12.12.20;18:15:00;1;296;17819;0;2;0;2822;0;0;0;0;3;0;1725;0;0;0;0;4;0;2392;0;0;0;0;5;0;0;0;0;0;0;0;0;6;0;3781;2;0;0;0;0;0;7;0;3052;0;0;0;0;8;0;3099;0;0;0;0;9;0;1645;0;0;0;0
12.12.20;18:10:00;1;296;17795;0;2;0;2822;0;0;0;0;3;0;1725;0;0;0;0;4;0;2392;0;0;0;0;5;0;0;0;0;0;0;0;0;6;0;3781;2;0;0;0;0;0;7;0;3052;0;0;0;0;8;0;3099;0;0;0;0;9;0;1645;0;0;0;0
12.12.20;18:05:00;1;308;17770;0;2;0;2822;0;0;0;0;3;0;1725;0;0;0;0;4;0;2392;0;0;0;0;5;0;0;0;0;0;0;0;0;6;0;3781;2;0;0;0;0;0;7;0;3052;0;0;0;0;8;0;3099;0;0;0;0;9;0;1645;0;0;0;0
12.12.20;18:00:00;1;395;17744;0;2;0;2822;0;0;0;0;3;0;1725;0;0;0;0;4;0;2392;0;0;0;0;5;0;0;0;0;0;0;0;0;6;0;3781;2;0;0;0;0;0;7;0;3052;0;0;0;0;8;0;3099;0;0;0;0;9;0;1645;0;0;0;0
12.12.20;17:55:00;1;349;17710;0;2;0;2822;0;0;0;0;3;0;1725;0;0;0;0;4;0;2392;0;0;0;0;5;0;0;0;0;0;0;0;0;6;0;3781;2;0;0;0;0;0;7;0;3052;0;0;0;0;8;0;3099;0;0;0;0;9;0;1645;0;0;0;0
12.12.20;17:50:00;1;351;17681;0;2;0;2822;0;0;0;0;3;0;1725;0;0;0;0;4;0;2392;0;0;0;0;5;0;0;0;0;0;0;0;0;6;0;3781;2;0;0;0;0;0;7;0;3052;0;0;0;0;8;0;3099;0;0;0;0;9;0;1645;0;0;0;0
12.12.20;17:45:00;1;314;17652;0;2;0;2822;0;0;0;0;3;0;1725;0;0;0;0;4;0;2392;0;0;0;0;5;0;0;0;0;0;0;0;0;6;0;3781;2;0;0;0;0;0;7;0;3052;0;0;0;0;8;0;3099;0;0;0;0;9;0;1645;0;0;0;0
12.12.20;17:40:00;1;306;17625;0;2;0;2822;0;0;0;0;3;0;1725;0;0;0;0;4;0;2392;0;0;0;0;5;0;0;0;0;0;0;0;0;6;0;3781;2;0;0;0;0;0;7;0;3052;0;0;0;0;8;0;3099;0;0;0;0;9;0;1645;0;0;0;0
12.12.20;17:35:00;1;321;17600;0;2;0;2822;0;0;0;0;3;0;1725;0;0;0;0;4;0;2392;0;0;0;0;5;0;0;0;0;0;0;0;0;6;0;3781;2;0;0;0;0;0;7;0;3052;0;0;0;0;8;0;3099;0;0;0;0;9;0;1645;0;0;0;0
12.12.20;17:30:00;1;406;17573;0;2;0;2822;0;0;0;0;3;0;1725;0;0;0;0;4;0;2392;0;0;0;0;5;0;0;0;0;0;0;0;0;6;0;3781;2;0;0;0;0;0;7;0;3052;0;0;0;0;8;0;3099;0;0;0;0;9;0;1645;0;0;0;0
12.12.20;17:25:00;1;335;17540;0;2;0;2822;0;0;0;0;3;0;1725;0;0;0;0;4;0;2392;0;0;0;0;5;0;0;0;0;0;0;0;0;6;0;3781;2;0;0;0;0;0;7;0;3052;0;0;0;0;8;0;3099;0;0;0;0;9;0;1645;0;0;0;0
12.12.20;17:20:00;1;313;17511;0;2;0;2822;0;0;0;0;3;0;1725;0;0;0;0;4;0;2392;0;0;0;0;5;0;0;0;0;0;0;0;0;6;0;3781;2;0;0;0;0;0;7;0;3052;0;0;0;0;8;0;3099;0;0;0;0;9;0;1645;0;0;0;0
12.12.20;17:15:00;1;368;17485;0;2;0;2822;0;0;0;0;3;0;1725;0;0;0;0;4;0;2392;0;0;0;0;5;0;0;0;0;0;0;0;0;6;0;3781;2;0;0;0;0;0;7;0;3052;0;0;0;0;8;0;3099;0;0;0;0;9;0;1645;0;0;0;0
12.12.20;17:10:00;1;399;17455;0;2;0;2822;0;0;0;0;3;0;1725;0;0;0;0;4;0;2392;0;0;0;0;5;0;0;0;0;0;0;0;0;6;0;3781;2;0;0;0;0;0;7;0;3052;0;0;0;0;8;0;3099;0;0;0;0;9;0;1645;0;0;0;0
12.12.20;17:05:00;1;407;17421;0;2;0;2822;0;0;0;0;3;0;1725;0;0;0;0;4;0;2392;0;0;0;0;5;0;0;0;0;0;0;0;0;6;0;3781;2;0;0;0;0;0;7;0;3052;0;0;0;0;8;0;3099;0;0;0;0;9;0;1645;0;0;0;0
12.12.20;17:00:00;1;383;17388;0;2;0;2822;0;0;0;0;3;0;1725;0;0;0;0;4;0;2392;0;0;0;0;5;0;0;0;0;0;0;0;0;6;0;3781;2;0;0;0;0;0;7;0;3052;0;0;0;0;8;0;3099;0;0;0;0;9;0;1645;0;0;0;0
12.12.20;16:55:00;1;387;17356;0;2;0;2822;0;0;0;0;3;0;1725;0;0;0;0;4;0;2392;0;0;0;0;5;0;0;0;0;0;0;0;0;6;0;3781;2;0;0;0;0;0;7;0;3052;0;0;0;0;8;0;3099;0;0;0;0;9;0;1645;0;0;0;0
12.12.20;16:50:00;1;360;17325;0;2;0;2822;0;0;0;0;3;0;1725;0;0;0;0;4;0;2392;0;0;0;0;5;0;0;0;0;0;0;0;0;6;0;3781;2;0;0;0;0;0;7;0;3052;0;0;0;0;8;0;3099;0;0;0;0;9;0;1645;0;0;0;0
12.12.20;16:45:00;1;317;17295;0;2;0;2822;0;0;0;0;3;0;1725;0;0;0;0;4;0;2392;0;0;0;0;5;0;0;0;0;0;0;0;0;6;0;3781;2;0;0;0;0;0;7;0;3052;0;0;0;0;8;0;3099;0;0;0;0;9;0;1645;0;0;0;0
12.12.20;16:40:00;1;301;17267;0;2;0;2822;0;0;0;0;3;0;1725;0;0;0;0;4;0;2392;0;0;0;0;5;0;0;0;0;0;0;0;0;6;0;3781;2;0;0;0;0;0;7;0;3052;0;0;0;0;8;0;3099;0;0;0;0;9;0;1645;0;0;0;0
12.12.20;16:35:00;1;296;17242;0;2;0;2822;0;0;0;0;3;0;1725;0;0;150;6;4;0;2392;0;0;0;0;5;0;0;0;0;0;0;0;0;6;0;3781;2;0;0;0;0;0;7;0;3052;0;0;0;0;8;0;3099;0;0;0;0;9;0;1645;0;0;0;0
12.12.20;16:30:00;1;371;17217;0;2;0;2822;6;0;282;9;3;0;1725;6;0;311;12;4;0;2392;0;0;48;6;5;0;0;0;0;0;0;0;0;6;0;3781;2;0;0;0;0;0;7;0;3052;0;0;0;0;8;0;3099;0;0;0;0;9;0;1645;0;0;0;0
12.12.20;16:25:00;1;353;17187;0;2;0;2822;6;0;314;9;3;0;1725;6;0;373;12;4;0;2392;1;0;92;9;5;0;0;0;0;0;0;0;0;6;0;3781;2;1;0;40;29;4;7;0;3052;0;0;0;0;8;0;3099;0;0;0;0;9;0;1645;0;0;0;0
12.12.20;16:20:00;1;347;17157;0;2;0;2822;6;0;354;9;3;0;1725;3;2;408;12;4;0;2392;1;0;137;9;5;0;0;0;0;0;0;0;0;6;0;3781;23;5;2;273;391;21;7;0;3052;11;0;278;13;8;0;3099;6;0;286;13;9;0;1645;6;0;301;9
12.12.20;16:15:00;1;414;17128;0;2;0;2822;6;0;379;9;3;1;1725;6;2;452;13;4;0;2392;1;0;176;9;5;0;0;0;0;0;0;0;0;6;0;3781;23;8;4;181;542;21;7;0;3052;6;0;352;13;8;0;3099;6;0;358;13;9;0;1645;6;0;378;9
12.12.20;16:10:00;1;448;17093;0;2;0;2822;6;0;397;9;3;2;1725;6;6;460;13;4;0;2392;1;0;210;10;5;0;0;0;0;0;0;0;0;6;0;3781;23;6;2;273;574;22;7;0;3052;6;0;194;6;8;0;3099;6;0;346;10;9;0;1645;6;0;282;6
12.12.20;16:05:00;1;503;17046;0;2;0;2822;6;0;409;10;3;1;1725;6;3;500;13;4;0;2392;1;0;223;10;5;0;0;0;0;0;0;0;0;6;0;3781;8;1;3;477;587;22;7;0;3052;6;0;150;4;8;0;3099;6;1;131;4;9;0;1645;4;0;393;8
12.12.20;16:00:00;1;513;17007;0;2;2;2822;6;7;411;10;3;1;1724;6;10;491;13;4;0;2392;3;0;230;10;5;0;0;0;0;0;0;0;0;6;0;3781;23;6;5;512;599;23;7;0;3052;6;0;320;9;8;0;3099;0;0;0;0;9;1;1645;0;2;225;5
12.12.20;15:55:00;1;547;16967;0;2;4;2822;6;10;412;10;3;0;1724;6;0;544;13;4;0;2392;3;0;199;11;5;0;0;0;0;0;0;0;0;6;28;3781;1;24;22;315;298;23;7;4;3052;6;10;342;11;8;1;3099;6;5;171;5;9;0;1645;0;0;109;2
12.12.20;15:50:00;1;471;16920;0;2;9;2822;4;19;403;10;3;3;1724;4;12;503;13;4;1;2392;3;1;200;11;5;0;0;0;0;0;0;0;0;6;17;3779;23;8;10;530;476;23;7;0;3052;6;6;312;9;8;2;3098;0;5;146;4;9;0;1645;6;0;183;3
12.12.20;15:45:00;1;479;16880;0;2;11;2821;3;20;407;10;3;2;1724;6;6;528;13;4;2;2392;3;2;199;11;5;0;0;0;0;0;0;0;0;6;57;3778;4;29;17;466;221;24;7;0;3052;0;0;168;4;8;0;3098;0;0;168;4;9;0;1645;6;4;161;3
12.12.20;15:40:00;1;815;16840;0;2;18;2820;6;29;402;11;3;2;1724;6;7;535;13;4;5;2391;3;5;199;11;5;0;0;0;0;0;0;0;0;6;62;3773;4;36;22;466;221;24;7;6;3052;3;13;178;6;8;5;3098;0;6;271;8;9;0;1645;0;4;58;1
12.12.20;15:35:00;1;873;16767;0;2;48;2818;4;76;366;11;3;3;1724;6;8;536;14;4;8;2391;3;8;199;11;5;0;0;0;0;0;0;0;0;6;78;3768;4;45;30;466;221;24;7;0;3050;0;0;85;2;8;0;3097;6;0;257;7;9;1;1645;4;5;353;6
12.12.20;15:30:00;1;933;16708;0;2;70;2814;4;97;372;11;3;5;1723;6;11;542;14;4;34;2390;3;35;198;11;5;0;0;0;0;0;0;0;0;6;98;3761;4;65;40;466;221;24;7;9;3050;0;15;73;2;8;40;3097;0;75;359;12;9;4;1645;0;8;165;3
12.12.20;15:25:00;1;1139;16637;0;2;78;2808;4;105;376;12;3;8;1723;6;13;541;14;4;40;2387;3;41;198;11;5;0;0;0;0;0;0;0;0;6;105;3753;4;65;37;466;221;24;7;29;3049;4;57;272;9;8;35;3094;4;57;274;9;9;0;1643;0;0;116;2
12.12.20;15:20:00;1;1053;16550;0;2;91;2802;4;119;361;12;3;16;1722;4;26;531;14;4;50;2384;3;52;198;11;5;0;0;0;0;0;0;0;0;6;132;3744;4;69;42;466;248;24;7;40;3042;0;55;218;7;8;34;3090;4;48;230;7;9;6;1643;6;9;361;7
12.12.20;15:15:00;1;1128;16461;0;2;143;2794;4;175;384;12;3;82;1721;4;119;485;14;4;102;2380;3;106;214;11;5;0;0;0;0;0;0;0;0;6;249;3732;4;115;133;466;471;24;7;38;3039;4;52;152;5;8;48;3080;0;59;147;5;9;9;1642;0;14;174;3
12.12.20;15:10:00;1;2484;16365;0;2;214;2782;4;250;389;12;3;126;1714;4;164;516;15;4;176;2371;5;183;230;11;5;0;0;0;0;0;0;0;0;6;398;3710;4;191;214;579;559;24;7;37;3025;0;41;76;2;8;139;3074;4;165;294;10;9;75;1638;0;96;340;8
12.12.20;15:05:00;1;2521;16161;0;2;263;2765;4;301;397;12;3;156;1703;4;201;519;15;4;223;2357;5;233;235;12;5;0;0;0;0;0;0;0;0;6;485;3677;4;243;266;589;566;24;7;42;3011;0;50;77;2;8;89;3053;0;102;154;5;9;51;1626;0;62;173;4
12.12.20;15:00:00;1;2440;15958;0;2;393;2742;4;433;400;12;3;226;1690;4;288;514;15;4;354;2338;5;369;241;12;5;0;0;0;0;0;0;0;0;6;705;3635;4;348;360;600;576;24;7;150;2988;0;164;159;5;8;207;3035;4;223;243;7;9;232;1619;4;265;529;12
12.12.20;14:55:00;1;2700;15781;0;2;576;2711;4;621;408;12;3;360;1671;4;408;520;15;4;516;2309;5;538;244;12;5;0;0;0;0;0;0;0;0;6;950;3575;4;462;467;607;585;24;7;625;2963;4;683;495;15;8;416;2981;0;443;294;9;9;220;1590;0;245;320;7
12.12.20;14:50:00;1;2415;15578;0;2;641;2663;4;688;411;12;3;404;1642;4;456;517;15;4;572;2267;5;596;242;11;5;0;0;0;0;0;0;0;0;6;1005;3495;4;518;523;603;585;24;7;639;2911;4;673;414;12;8;769;2950;4;811;478;15;9;274;1573;4;305;355;8
12.12.20;14:45:00;1;3458;15381;0;2;536;2609;4;580;411;12;3;334;1608;4;384;518;15;4;475;2219;5;495;244;11;5;0;0;0;0;0;0;0;0;6;849;3411;4;445;450;599;577;24;7;525;2846;4;554;391;12;8;651;2885;4;704;488;15;9;350;1539;4;395;540;12
12.12.20;14:40:00;1;3212;15129;0;2;430;2565;4;470;412;12;3;268;1580;4;313;519;15;4;375;2179;5;391;243;11;5;0;0;0;0;0;0;0;0;6;696;3342;4;344;355;599;572;24;7;490;2791;4;546;486;15;8;508;2831;4;557;482;15;9;273;1509;4;309;524;12
12.12.20;14:35:00;1;3185;14873;0;2;359;2528;4;397;405;12;3;224;1557;4;266;514;15;4;307;2147;5;319;238;11;5;0;0;0;0;0;0;0;0;6;568;3284;4;284;314;552;571;24;7;410;2750;4;457;487;15;8;420;2788;4;463;487;15;9;226;1486;4;260;524;12
12.12.20;14:30:00;1;3944;14588;0;2;287;2498;4;325;397;12;3;174;1539;4;217;526;15;4;240;2122;5;250;237;11;5;0;0;0;0;0;0;0;0;6;431;3238;4;187;237;466;563;24;7;319;2716;4;367;493;15;8;323;2753;4;373;487;15;9;181;1467;4;210;523;12
12.12.20;14:25:00;1;1752;14277;0;2;274;2474;4;309;390;12;3;168;1524;4;210;519;15;4;228;2102;5;237;235;11;5;0;0;0;0;0;0;0;0;6;416;3202;4;184;230;466;562;24;7;302;2689;4;345;497;15;8;323;2725;4;355;476;15;9;170;1452;4;200;516;12
12.12.20;14:20:00;1;1339;14137;0;2;275;2451;4;311;396;12;3;167;1510;4;208;522;15;4;227;2083;5;237;236;11;5;0;0;0;0;0;0;0;0;6;412;3167;4;190;238;466;562;24;7;326;2663;4;374;484;15;8;327;2698;4;372;489;15;9;184;1438;4;214;520;12
12.12.20;14:15:00;1;2296;14022;0;2;232;2429;4;267;389;12;3;139;1496;4;178;516;15;4;191;2064;5;199;232;11;5;0;0;0;0;0;0;0;0;6;359;3133;4;154;189;466;565;24;7;271;2636;4;318;477;15;8;281;2671;4;320;487;15;9;151;1423;4;182;527;12
12.12.20;14:10:00;1;2405;13832;0;2;223;2409;4;259;389;12;3;135;1484;4;173;516;15;4;174;2048;5;181;229;12;5;0;0;0;0;0;0;0;0;6;339;3104;4;139;178;466;560;24;7;270;2614;4;309;477;15;8;264;2648;4;307;486;15;9;144;1410;4;173;529;12
12.12.20;14:05:00;1;1549;13621;0;2;214;2390;4;250;392;12;3;127;1473;4;166;511;15;4;160;2033;5;167;229;12;5;0;0;0;0;0;0;0;0;6;361;3075;4;181;204;536;560;24;7;294;2591;4;330;482;15;8;289;2626;4;334;476;15;9;157;1398;4;185;524;12
12.12.20;14:00:00;1;1221;13498;0;2;267;2373;4;305;393;13;3;165;1463;4;202;515;15;4;222;2020;5;231;235;12;5;0;0;0;0;0;0;0;0;6;457;3045;4;212;232;557;562;24;7;339;2567;4;397;489;15;8;364;2602;4;405;469;15;9;193;1385;4;225;519;12
12.12.20;13:55:00;1;1711;13391;0;2;278;2350;4;316;388;13;3;167;1449;4;206;525;15;4;228;2001;5;237;233;12;5;0;0;0;0;0;0;0;0;6;461;3006;4;232;247;569;565;24;7;304;2539;4;345;477;15;8;306;2572;4;351;474;15;9;170;1369;4;200;515;12
12.12.20;13:50:00;1;1497;13251;0;2;367;2327;4;411;403;13;3;229;1435;4;271;519;15;4;318;1982;5;331;238;12;5;0;0;0;0;0;0;0;0;6;618;2967;4;298;311;582;565;24;7;415;2513;4;460;481;15;8;421;2546;4;463;480;15;9;221;1355;4;256;529;12
12.12.20;13:45:00;1;1072;13137;0;2;659;2298;4;709;413;14;3;418;1416;4;468;517;16;4;576;1957;5;599;246;12;5;0;0;0;0;0;0;0;0;6;1026;2915;4;525;536;594;576;24;7;740;2480;4;792;493;15;8;745;2512;4;792;475;15;9;399;1337;4;445;534;13
12.12.20;13:40:00;1;942;13044;0;2;680;2243;4;731;418;14;3;430;1382;4;482;515;16;4;595;1909;5;619;243;12;5;0;0;0;0;0;0;0;0;6;1067;2826;4;548;553;602;579;23;7;710;2418;4;749;490;15;8;711;2450;4;758;482;15;9;382;1304;4;425;534;13
12.12.20;13:35:00;1;2247;12967;0;2;804;2186;4;859;415;14;3;510;1346;4;563;519;16;4;705;1859;5;734;247;12;5;0;0;0;0;0;0;0;0;6;1219;2737;4;611;610;603;578;23;7;813;2358;4;875;483;15;8;823;2390;4;878;486;15;9;445;1271;4;489;538;13
12.12.20;13:30:00;1;3065;12772;0;2;766;2119;4;820;417;13;3;490;1303;4;541;522;15;4;674;1800;5;702;250;12;5;0;0;0;0;0;0;0;0;6;1166;2635;4;593;587;605;586;23;7;832;2289;4;883;490;15;8;843;2320;4;897;490;15;9;452;1233;4;502;538;12
12.12.20;13:25:00;1;3166;12519;0;2;606;2055;4;654;417;13;3;382;1262;4;431;515;15;4;528;1743;5;550;244;12;5;0;0;0;0;0;0;0;0;6;943;2538;4;478;488;609;585;23;7;566;2220;4;610;491;15;8;576;2250;4;620;470;15;9;308;1196;4;348;518;12